Wind_Speed
10 10 9 10 10 10 9 10 10 10 11 11 11 10 11 8 2 2 2 2 3 7 10 7 4 3 2 2 1 1 3 5 4 5 6 8 11 11 10 16 15 15 16 15 19
11 11 12 12 12 12 11 11 11 11 10 11 11 11 11 6 0 2 2 3 5 7 7 8 8 5 2 1 1 3 4 4 6 10 13 16 16 16 15 16 17 16 17 16 10
13 14 13 14 13 13 13 13 12 11 11 10 10 12 10 3 2 1 3 4 5 6 5 3 4 3 1 1 1 1 5 7 12 11 14 19 19 17 17 20 16 13 12 6 9
13 14 15 16 16 16 16 13 13 14 12 10 9 9 8 1 3 2 2 4 6 4 1 3 4 5 4 5 1 6 9 10 9 14 13 18 15 17 17 23 16 18 16 15 13
16 17 18 18 18 18 19 16 16 16 15 12 7 5 2 3 2 3 3 6 4 2 2 3 3 3 6 6 8 7 9 10 15 18 14 12 15 15 18 19 18 17 18 19 15
18 19 20 20 20 21 20 17 19 21 17 10 6 2 1 4 2 2 5 5 3 2 2 2 2 3 5 6 5 7 15 19 11 9 9 8 12 4 10 9 10 13 14 15 11
20 21 22 22 23 24 20 21 21 14 9 3 4 3 2 3 1 4 4 5 1 1 2 1 1 3 5 8 4 9 10 13 2 9 7 9 8 7 10 7 13 12 5 5 4
20 21 22 24 25 24 22 23 16 5 4 2 5 3 3 1 3 4 5 1 5 1 1 1 2 1 4 8 4 6 4 9 11 10 3 7 9 9 13 11 15 3 4 7 6
21 22 23 24 26 22 23 23 5 4 3 3 2 2 2 1 2 5 5 3 2 4 5 4 0 2 3 9 5 5 8 14 9 7 10 6 12 18 17 18 11 0 9 9 12
20 22 25 26 26 21 23 11 3 2 3 3 2 2 1 3 5 4 5 3 1 4 2 1 1 2 7 9 9 11 8 11 9 10 12 13 15 16 27 21 13 8 6 7 6
20 22 23 25 22 20 20 3 4 2 7 4 4 3 2 7 1 1 5 1 1 2 4 2 3 7 11 7 8 7 8 10 6 7 7 15 16 15 6 11 15 13 11 1 9
20 22 24 25 15 17 18 7 3 2 6 1 4 5 4 1 1 2 6 1 2 2 4 2 5 6 9 4 9 2 10 9 2 6 6 19 21 19 19 18 13 12 13 6 6
21 23 24 23 7 14 14 7 1 1 3 3 2 3 2 2 1 3 5 1 3 2 6 3 3 8 4 5 13 1 9 8 4 7 1 1 19 19 16 23 25 24 18 14 6
21 24 24 19 4 9 4 8 3 1 2 3 2 2 1 2 1 1 2 2 1 5 2 1 3 5 7 7 8 7 9 6 6 2 5 10 5 18 18 19 22 18 21 21 11
19 22 22 15 7 4 8 8 2 2 1 4 2 2 4 3 5 3 2 0 1 4 3 4 5 6 11 8 5 6 6 4 4 5 2 14 4 14 18 19 20 19 16 18 19
19 21 19 10 6 8 12 7 1 1 2 2 2 5 4 4 4 5 2 3 1 2 1 2 1 2 6 8 2 8 2 2 1 2 5 8 2 10 11 16 19 19 19 19 20
17 19 15 10 5 14 11 1 2 1 1 5 3 5 2 5 3 7 4 6 5 3 7 4 1 2 2 6 1 13 2 2 2 2 3 4 4 6 12 15 14 16 18 20 20
17 17 11 6 10 12 6 2 1 1 2 1 2 2 2 6 3 6 1 2 5 2 1 4 2 6 7 3 4 5 5 3 1 1 2 3 3 4 9 14 13 15 17 19 21
16 11 4 7 8 9 3 1 2 1 1 6 5 1 0 1 3 4 4 2 3 4 4 4 3 1 2 2 3 4 4 3 2 1 2 2 3 6 8 14 16 18 19 20 20
12 6 2 6 7 4 1 3 2 2 1 1 3 2 2 3 3 3 1 1 1 1 3 2 4 1 3 2 2 4 2 2 1 2 2 4 4 3 9 12 14 17 17 18 19
4 3 1 5 4 1 2 3 3 3 3 2 2 3 3 2 1 2 0 1 1 1 0 2 2 1 2 3 3 1 3 3 1 3 2 2 3 4 5 6 8 11 14 16 17
1 2 3 3 1 1 2 3 1 3 2 3 2 3 3 2 2 2 3 2 2 2 1 0 1 3 3 2 3 1 1 1 3 2 2 4 2 4 5 5 8 9 12 13 15
1 2 3 1 2 3 2 3 3 2 3 2 2 4 1 2 3 3 2 1 2 1 0 3 2 4 3 3 4 4 2 1 2 0 6 4 3 4 3 4 8 8 10 12 14
1 2 1 1 2 2 3 3 3 3 3 3 2 1 1 3 3 2 2 1 1 1 3 3 3 7 7 9 2 8 5 5 6 4 3 9 4 9 1 4 8 8 10 12 14
1 4 3 2 4 4 1 1 3 3 3 3 2 7 5 3 2 4 2 2 2 2 2 2 5 5 11 13 12 12 14 11 12 14 8 1 5 6 2 7 8 8 10 12 14
4 3 0 1 1 5 4 4 5 3 5 4 5 4 6 5 4 4 2 2 5 2 2 1 3 2 7 10 6 9 10 9 10 11 14 11 3 3 2 4 6 7 10 12 14
4 3 3 2 3 4 4 6 6 4 4 2 4 4 6 8 4 5 6 6 5 3 3 3 3 2 5 1 10 11 2 3 4 2 2 7 2 2 0 6 6 5 9 11 12
Wind_Direction
23 13 10 6 1 356 352 347 344 344 344 344 348 351 349 341 293 319 349 325 319 343 332 347 4 59 117 103 31 243 262 305 292 285 302 267 269 273 273 272 267 270 273 288 293
22 16 16 9 2 354 346 340 336 333 332 333 340 344 347 344 183 284 295 328 329 328 330 351 3 6 106 81 171 267 280 312 297 284 286 292 282 280 279 271 265 263 264 259 264
19 14 9 6 356 349 341 334 330 324 321 320 328 335 346 359 245 339 14 341 326 310 318 317 347 339 9 309 61 244 279 321 296 299 295 289 283 279 261 264 264 271 271 254 232
15 8 3 356 348 346 342 333 332 326 315 311 316 327 335 65 12 190 312 343 320 302 256 307 320 342 320 317 283 273 268 285 286 302 300 295 297 275 264 258 264 270 280 277 259
10 5 2 354 346 343 338 330 327 322 312 301 299 309 331 238 236 240 283 316 308 281 257 298 315 332 325 310 303 251 302 303 291 293 289 294 287 275 268 261 267 277 267 265 246
9 5 2 356 350 344 337 332 327 320 308 279 268 272 213 260 187 290 301 311 262 244 234 261 313 315 287 296 283 327 301 295 301 297 300 295 299 301 279 289 270 267 267 263 239
5 4 358 356 349 346 342 332 326 320 317 260 210 177 197 272 192 322 327 314 249 249 283 253 238 269 327 306 323 296 303 320 49 341 320 316 285 253 315 315 310 273 273 256 242
2 1 357 353 349 346 340 331 328 338 350 149 156 163 249 227 313 330 358 77 355 85 111 86 161 295 290 305 285 306 255 350 350 348 8 328 320 16 346 325 316 107 120 64 38
0 358 354 351 348 347 343 336 8 20 71 114 132 222 136 355 353 338 0 353 128 86 84 96 15 332 311 343 335 20 327 337 334 20 332 345 328 354 4 3 11 236 55 9 10
357 357 353 351 349 352 347 346 22 53 56 106 118 230 52 357 317 333 345 10 127 137 144 73 5 295 359 4 357 328 331 334 332 356 353 9 28 34 13 358 28 344 72 83 59
356 356 355 352 352 0 1 6 332 160 39 350 315 275 326 321 318 22 347 202 158 85 353 35 46 8 339 334 307 306 307 318 2 6 7 54 47 35 10 357 16 13 351 36 294
355 353 356 351 353 8 36 66 72 318 311 295 274 272 249 326 278 58 1 328 30 21 325 162 34 341 316 293 331 312 337 14 94 5 62 68 56 39 36 22 23 359 352 335 239
351 353 354 350 358 8 56 65 27 155 265 301 285 301 351 321 25 358 357 94 49 336 19 50 14 320 335 346 352 73 5 334 307 319 199 28 52 27 25 35 30 13 354 341 127
353 352 353 357 17 0 58 5 344 208 297 35 34 55 295 357 116 322 19 339 104 355 20 18 352 347 343 13 343 345 349 301 302 274 55 346 76 22 8 29 36 23 358 356 26
350 350 352 7 335 24 326 336 331 250 6 11 2 340 329 8 324 33 24 324 10 11 327 9 347 358 357 350 336 326 335 326 334 67 106 21 56 10 11 9 9 14 18 9 20
344 346 348 357 359 344 332 328 204 247 266 18 328 358 342 28 12 316 28 61 38 115 98 351 336 317 326 310 258 322 223 240 243 321 49 7 0 35 22 354 352 6 24 22 24
338 342 344 351 340 333 331 264 331 187 12 357 347 358 351 337 14 12 26 39 23 18 15 334 26 337 346 326 345 6 40 204 171 52 52 355 36 31 0 13 6 6 21 32 33
334 333 335 353 342 341 328 277 269 59 344 15 319 302 35 360 50 357 40 67 58 23 79 355 334 5 348 29 315 359 2 6 103 144 62 356 116 53 26 25 31 33 36 37 35
330 324 347 341 350 348 300 307 287 198 309 332 300 289 37 54 335 349 29 46 18 355 16 343 317 300 318 345 332 6 26 332 83 89 237 101 117 195 40 36 30 32 30 30 28
331 320 322 346 359 11 293 267 267 235 234 206 292 350 304 335 312 23 18 36 113 19 297 120 290 83 320 271 80 38 75 315 356 211 177 162 207 197 12 17 22 26 25 22 21
328 303 332 348 38 22 245 247 284 258 222 211 267 275 265 281 280 301 142 136 179 138 70 173 228 198 248 23 340 94 49 54 306 303 286 230 153 45 63 32 33 30 27 24 19
322 279 346 18 30 11 237 206 316 265 221 234 247 251 247 257 252 251 229 232 178 159 283 161 280 280 304 349 255 282 350 27 320 341 306 311 111 90 80 43 15 19 15 15 16
213 286 353 198 237 218 243 260 236 220 233 214 242 229 168 251 274 238 251 161 131 161 268 180 214 296 172 181 166 224 188 104 107 253 248 281 111 134 95 47 24 10 8 8 7
149 308 330 345 80 240 208 228 249 205 254 201 240 186 175 245 229 287 252 203 300 353 43 203 230 243 265 301 323 266 213 223 245 246 243 238 171 186 126 11 10 12 5 3 4
176 226 262 170 224 196 185 252 203 234 216 211 204 226 190 239 242 236 240 295 177 7 109 229 255 223 260 274 269 265 267 253 227 232 237 81 242 143 35 0 360 358 1 2 2
173 169 274 95 154 169 186 215 220 233 196 222 220 186 192 224 229 280 205 208 265 132 159 199 269 264 271 261 260 265 260 247 240 245 250 251 194 139 148 347 5 7 359 359 358
185 131 111 135 209 169 212 208 211 187 213 252 217 172 211 238 235 270 246 261 275 235 221 247 246 236 267 240 303 270 223 168 131 136 266 221 85 45 143 0 8 10 3 357 354
Height
856 854 852 852 850 848 847 845 843 841 839 838 836 834 832 830 830 829 828 829 828 825 824 822 820 817 816 815 817 816 813 807 810 809 800 797 800 793 793 791 787 786 784 781 780
856 855 855 852 850 848 846 844 842 840 839 837 835 833 831 830 829 829 828 827 826 825 825 822 818 817 814 815 816 814 813 806 802 800 800 794 794 791 792 788 783 781 781 778 777
858 857 855 854 850 847 845 843 841 839 838 836 835 833 831 830 830 827 827 826 825 824 823 823 821 818 814 815 814 814 809 801 799 796 796 793 790 787 788 784 781 780 774 772 774
858 857 855 853 849 847 844 842 839 837 835 834 833 832 831 830 833 826 825 824 823 822 822 821 819 816 815 814 814 815 804 805 800 797 796 793 786 784 781 776 773 774 774 771 770
859 857 855 851 848 846 843 840 838 835 833 832 831 831 830 829 824 823 823 822 821 822 822 820 818 817 816 813 812 812 804 802 797 795 793 789 786 783 776 771 771 771 770 766 765
859 857 854 851 847 844 840 837 835 832 829 828 829 830 831 828 823 823 822 821 821 821 821 821 818 818 816 814 815 807 805 799 794 792 789 790 781 784 769 767 769 767 763 760 759
859 857 853 850 845 841 837 834 830 827 825 825 826 828 829 824 823 823 822 821 821 821 820 820 821 820 817 811 813 809 806 793 791 790 788 787 773 778 766 768 766 761 762 758 757
859 856 852 848 844 839 835 830 826 825 825 824 825 826 823 822 823 822 822 821 820 820 821 821 821 820 818 811 809 806 804 797 788 792 789 789 778 769 769 768 762 762 766 766 764
859 856 852 847 842 837 832 827 826 826 826 826 827 826 821 822 823 822 822 821 820 820 821 821 821 820 816 814 801 804 810 802 796 793 794 790 782 777 776 769 766 768 768 771 771
859 855 852 847 841 836 831 826 826 827 827 826 827 828 823 825 823 822 822 821 821 821 821 820 820 817 811 811 816 815 810 804 802 797 793 789 791 786 784 781 780 773 772 770 781
858 855 850 846 841 837 831 827 830 828 829 831 830 826 824 824 822 822 821 821 820 819 822 822 820 825 820 820 820 821 816 807 797 802 794 795 796 798 798 788 782 781 774 776 773
858 854 850 846 841 839 834 837 847 848 837 831 830 828 823 823 821 821 820 818 818 822 823 820 822 825 824 822 820 817 806 802 801 803 793 791 796 797 798 794 791 789 780 774 772
858 854 849 845 841 839 840 845 845 845 841 830 828 827 826 825 823 822 822 822 822 820 827 818 824 825 824 818 815 813 814 810 812 803 802 793 792 797 797 793 792 792 786 773 768
858 855 850 845 846 843 844 845 845 844 832 830 827 827 826 825 825 824 823 824 820 823 827 824 825 826 821 818 823 806 817 816 809 793 797 790 800 797 800 801 797 805 799 790 769
858 854 851 846 847 847 849 844 843 845 844 832 829 827 826 826 828 824 825 822 823 826 826 828 827 825 817 821 823 815 820 815 809 797 791 801 801 810 802 801 809 810 807 798 787
857 854 851 849 848 848 845 844 844 839 850 835 831 833 827 827 827 825 824 823 826 826 828 828 832 830 824 823 822 820 816 812 807 800 812 818 810 814 823 829 821 815 812 805 798
857 854 851 850 850 847 844 844 843 839 837 839 838 835 837 834 829 830 831 828 830 830 831 824 827 827 831 820 817 814 806 808 809 810 814 819 814 823 825 833 833 826 820 815 810
856 853 850 850 848 846 845 838 849 845 841 841 841 838 835 837 835 833 832 830 837 834 835 836 834 830 828 829 830 829 825 822 822 818 815 816 820 830 835 839 837 834 830 825 821
854 851 850 850 848 847 845 846 841 844 847 844 836 835 835 837 838 833 836 835 839 839 835 834 831 833 835 832 833 822 827 835 828 832 821 826 828 832 834 840 840 838 836 833 831
854 851 850 849 847 848 846 848 845 848 846 846 840 841 837 835 835 834 836 839 838 841 840 840 838 836 832 836 834 827 835 827 827 823 821 819 820 814 837 847 847 848 847 844 841
852 850 849 848 846 848 847 847 850 848 847 846 843 840 839 838 841 837 835 839 837 839 839 839 838 830 833 832 832 829 826 835 835 830 818 813 810 841 852 855 854 853 853 853 850
854 852 849 848 849 858 847 850 851 846 847 844 845 843 841 843 839 836 835 834 837 837 837 841 838 834 828 835 840 836 831 829 830 829 832 827 821 851 855 858 859 858 859 857 854
852 851 849 848 846 848 851 849 849 846 845 845 843 844 844 842 841 840 839 838 838 837 837 838 838 834 828 833 835 833 833 835 835 836 830 824 818 854 856 858 860 861 860 858 857
852 853 851 850 852 849 846 845 845 846 845 843 843 844 845 844 843 840 840 840 842 840 843 840 837 829 827 820 829 828 831 833 831 835 820 816 833 852 857 859 861 862 863 862 859
851 850 849 845 845 847 849 848 843 842 844 844 842 842 840 842 843 840 841 840 841 844 844 840 834 838 830 828 829 829 826 827 834 828 826 814 824 853 863 865 867 869 867 865 864
846 850 854 848 850 848 846 843 842 841 841 840 839 837 840 839 835 836 840 843 838 842 841 845 833 840 836 827 832 829 821 823 825 827 825 824 843 862 865 866 868 872 872 868 865
843 843 844 851 849 842 837 833 837 840 836 836 838 838 839 836 838 839 839 839 838 838 839 842 836 838 825 831 826 813 824 830 839 846 841 831 846 865 862 864 870 874 872 870 868